星链-34246 (STARLINK-34246)

导读

STARLINK-34246是美国SpaceX星链星座的一员,于2025年7月8日发射升空,属于低轨互联网通信卫星。星链项目旨在为全球提供高速低延迟宽带网络服务,该卫星入轨后,将和其他星链卫星组网,进一步扩展星链全球覆盖范围,提升服务容量,助力偏远地区网络接入等应用落地。

Basic Information
目录编号:
64769
目录名称:
STARLINK-34246
国际标识:
2025-147Q
轨道中心:
EARTH
卫星名称:
星链-34246
卫星全名:
星链-34246 (STARLINK-34246)
卫星状态:
在轨 (已飞行423 天)
发射日期:
2025-07-08 UTC
国别 :
美国 (US)
星等 :
--
Orbit Information
数据来源 国际轨道数据
星历时间: 2026-09-02T08:50:44+0800
1天前
查看轨道信息
半长轴: 6840.846km
偏心率: 0.000095
轨道倾角: 53.159°
近地点辐角 72.270°
升交点赤经 139.918°
平近点角 287.841°
近地点: 462.059km
远地点: 463.359km
周期: 93.848分钟
每日圈数: 15.343983
Detailed Information
固有亮度:
5
最大亮度:
2.5
卫星平台:
Starlink V1.0
覆盖范围:
全球
运营商:
太空探索技术公司
运营商所在国:
美国
制造商(研发单位):
太空探索技术公司
制造商所在国:
美国
使用方式:
暂无
Satellite Introduction
Starlink 计划是 SpaceX 推出的全球卫星互联网项目,通过发射低轨道卫星,为全球尤其是偏远地区提供高速、低延迟的互联网服务。自 2019 年起,Starlink 已部署数千颗卫星,旨在缩小全球数字鸿沟,推动互联网普及。该项目还为军事、航空等行业提供通信支持,带来广泛经济效益。
2D Orbit Map
3D Orbit Map
Orbit Altitude Analysis Chart
Orbit Inclination Analysis Chart
Orbit Comprehensive Analysis Chart
View Comprehensive Chart
Conjunction Data List
Event ID Objects TCA Miss Dist (km) Collision Risk Probability Collision Risk Index (CRI) Action
CDM_260905-033505-114606-476921
2026-09-05T
03:35:44+0000
0.649 km
远距离
6.802691E-5 中风险 0.72
CDM_260904-000306-454006-476922
ARCSTONE (64540)
2026-09-04T
00:03:37+0000
1.046 km
极远距离
2.164378E-5 中风险 0.62
CDM_260904-022406-454006-476922
ARCSTONE (64540)
2026-09-04T
02:24:23+0000
1.415 km
极远距离
7.591943E-6 低风险 0.53